Regional Weather Roundup
Issued by NWS

Home | Current Version | Previous Version | Graphics & Text | Print | Product List | Glossary On
Versions: 1 2 3 4 5 6 7 8 9 10 11 12 13 14 15 16 17 18 19 20 21 22 23 24 25 26 27 28 29 30 31 32 33 34 35 36 37 38 39 40 41 42 43 44 45 46 47 48 49 50
000
ASUS43 KMPX 312110
RWRMN
WEATHER ROUNDUP FOR MINNESOTA
NATIONAL WEATHER SERVICE TWIN CITIES/CHANHASSEN MN
400 PM CDT MON AUG 31 2015


NOTE: "FAIR" INDICATES FEW OR NO CLOUDS BELOW 12,000 FEET WITH NO
SIGNIFICANT WEATHER AND/OR OBSTRUCTIONS TO VISIBILITY. N/A MEANS
CURRENT SKY AND/OR WEATHER CONDITIONS ARE NOT AVAILABLE.

MNZ060>063-068>070-312200-
   Twin Cities Metro

CITY           SKY/WX    TMP DP  RH WIND       PRES   REMARKS
TWIN CITIES    FAIR      85  68  56 SW16G26   29.89F
ST PAUL        FAIR      84  71  65 S16       29.88F
CRYSTAL        FAIR      86  68  54 S18G24    29.87F
BLAINE         MOSUNNY   86  70  58 SW15G25   29.88F HX  90
LAKEVILLE      FAIR      82  70  65 S10G17    29.90F
EDEN PRAIRIE   FAIR      84  69  60 S20G29    29.88F
SOUTH ST PAUL  FAIR      85  68  57 S15G21    29.89F
LAKE ELMO      FAIR      82  72  69 S16G23    29.91F
$$
MNZ001>005-007-008-013>017-022>024-027-028-312200-
   Northwest Minnesota

CITY           SKY/WX    TMP DP  RH WIND       PRES   REMARKS
BEMIDJI        FAIR      80  64  58 W13G21    29.80R
HALLOCK        FAIR      79  63  57 SW10      29.75S
ROSEAU         FAIR      77  64  65 CALM      29.75F
WARROAD        FAIR      75  66  73 W7        29.76S
THIEF RVR FALL FAIR     N/A N/A N/A CALM      29.78F
CROOKSTON      FAIR      79  63  57 CALM      29.78F
FOSSTON        CLOUDY    72  64  78 W5        29.82R
DETROIT LAKES  FAIR      79  63  57 W9        29.83R
MOORHEAD       FAIR      79  66  65 N10       29.80S
PARK RAPIDS    FAIR      84  63  49 SW13      29.81S
MAHNOMEN       FAIR      77  68  74 NW8G16    29.81R
$$
MNZ006-009>011-018-025>026-312200-
   North Central Minnesota

CITY           SKY/WX    TMP DP  RH WIND       PRES   REMARKS
BAUDETTE       CLOUDY    71  64  78 W7        29.77R
FLAG ISLAND    CLOUDY    73  64  73 SW5       29.73S HAZE
INTL FALLS     FAIR      81  64  56 W9G21     29.74R
WASKISH        FAIR      75  66  73 W14G20    29.78R
BIG FORK       FAIR      82  63  51 S16G22    29.78S
LONGVILLE      FAIR      82  64  54 S12G18    29.81R
GRAND RAPIDS     N/A     82  64  54 S15       29.81S
CRANE LAKE     FAIR      82  61  47 S9G17     29.76S
ORR            FAIR      84  57  39 SW10G21   29.75S
COOK           FAIR      82  61  47 SW9G20    29.79S
WALKER         FAIR      81  63  54 SW14G22   29.80R
$$
MNZ012-019>021-037-312200-
   Northeast Minnesota

CITY           SKY/WX    TMP DP  RH WIND       PRES   REMARKS
DULUTH         FAIR      81  66  60 SW17      29.85F
ELY            FAIR      81  61  50 SW10G18   29.80S
HIBBING        FAIR      84  63  49 S8G20     29.81S
EVELETH        FAIR      81  63  54 S16G23    29.83S
DULUTH HARBOR  FAIR      82  70  65 S21       29.82F
TWO HARBORS    FAIR      82  72  69 SW9       29.83S
SILVER BAY     FAIR      81  66  61 S14G20    29.82F
GRAND MARAIS     N/A     63  59  87 SW6       29.83F
G MARAIS ARPRT FAIR      72  61  68 S8        29.89S
$$
MNZ029>031-032-039>041-046>048-054>057-064-312200-
   West Central Minnesota

CITY           SKY/WX    TMP DP  RH WIND       PRES   REMARKS
FERGUS FALLS   FAIR      81  64  57 W13       29.79S
WHEATON        FAIR      82  64  54 SW8       29.82S
MORRIS         FAIR      88  66  48 SW12      29.81R HX  90
ALEXANDRIA     FAIR      83  67  58 S18G24    29.85S
ELBOW LAKE     FAIR      84  65  52 SW12      29.81S HAZE
WADENA         FAIR      82  64  54 S14       29.81F
GLENWOOD       FAIR      84  70  61 S18       29.85S
APPLETON       FAIR      88  64  45 SW7       29.81S
BENSON         FAIR      84  66  54 SW12      29.83S
ORTONVILLE     FAIR      86  64  48 SW9       29.81F
MADISON        FAIR      84  66  54 SW9       29.83S
WILLMAR        FAIR      84  70  61 S6        29.86F
$$
MNZ033>034-036-042>043-049>051-058-059-312200-
   Central Minnesota

CITY           SKY/WX    TMP DP  RH WIND       PRES   REMARKS
ST CLOUD       FAIR      83  69  62 S16G24    29.85F
SAUK CENTRE    FAIR      82  68  62 S16G22    29.85S
PAYNESVILLE    FAIR      82  67  60 SE12G23   29.86S
AITKIN         FAIR      82  70  65 S17G28    29.82S
PINE RIVER     FAIR      82  66  57 S13G20    29.85R
BRAINERD       FAIR      83  66  56 S21G28    29.83S
STAPLES        FAIR      82  64  54 S15G25    29.82S
LONG PRAIRIE   FAIR      81  66  61 S15G22    29.84S
LITTLE FALLS   FAIR      82  64  54 S15G24    29.85S
LITCHFIELD     FAIR      84  70  61 S7        29.86S
BUFFALO        FAIR      83  65  55 S13G24    29.88F
MAPLE LAKE     FAIR      82  71  67 S8G22     29.87F
$$
MNZ037-044-045-052-053-312200-
   East Central Minnesota

CITY           SKY/WX    TMP DP  RH WIND       PRES   REMARKS
PRINCETON      FAIR      84  68  58 S13G24    29.86F
MORA           FAIR      79  64  61 S17G25    29.87F
CAMBRIDGE      FAIR      84  70  61 S13G21    29.85F
RUSH CITY      FAIR      82  70  68 S9        29.87F
MOOSE LAKE     FAIR      81  68  65 S13G22    29.83S
HINCKLEY       FAIR      82  70  65 S14G22    29.86F
CLOQUET        FAIR      81  66  61 S15G22    29.84F
MCGREGOR       FAIR      81  64  57 SW18G25   29.84S
$$
MNZ071>073-080-081-089-090-097-098-312200-
   Southwest Minnesota

CITY           SKY/WX    TMP DP  RH WIND       PRES   REMARKS
MONTEVIDEO     FAIR      88  70  55 SW13G21   29.85S HX  92
GRANITE FALLS  FAIR      84  70  61 S14G20    29.86S
CANBY          FAIR      86  66  51 SW12G17   29.85S
MARSHALL       FAIR      84  66  54 S20G25    29.87S
REDWOOD FALLS  FAIR      84  67  56 S20       29.86F
OLIVIA         FAIR      81  64  57 S18       29.86S
PIPESTONE      FAIR      81  68  65 S13G23    29.88F
WINDOM         FAIR      82  66  57 S17G25    29.90S
WORTHINGTON    FAIR      81  66  61 S21       29.90F
JACKSON        FAIR      82  68  61 S17G23    29.92F
TRACY          FAIR      83  69  63 S14G22    29.88S
SLAYTON        FAIR      81  66  59 S15G23    29.90S
$$
MNZ065>067-074>077-082>085-091>093-312200-
   South Central Minnesota

CITY           SKY/WX    TMP DP  RH WIND       PRES   REMARKS
MANKATO        PTSUNNY   81  68  65 S17       29.90F
NEW ULM        FAIR      82  66  57 S20       29.87S
ST JAMES       FAIR      84  70  61 S13G28    29.90F
FAIRMONT       FAIR      82  64  54 S15       29.91F
GLENCOE        FAIR      84  71  64 S14G25    29.87F
FARIBAULT      FAIR      82  72  69 S8        29.92F
OWATONNA       FAIR      82  70  65 S14G21    29.93F
WASECA         FAIR      82  70  65 S13G18    29.93F
ALBERT LEA     FAIR      84  70  61 S9G16     29.94F
$$
MNZ078>079-086>088-094>096-312200-
   Southeast Minnesota

CITY           SKY/WX    TMP DP  RH WIND       PRES   REMARKS
ROCHESTER      PTSUNNY   80  71  74 S14       29.97F
RED WING       FAIR      84  70  61 S9        29.91F
STANTON        PTSUNNY   84  70  62 S7        29.90F
DODGE CENTER   FAIR      81  72  74 S16       29.96S
WINONA         FAIR      82  68  61 CALM      29.95F
AUSTIN         FAIR      82  73  74 S14       29.95F
PRESTON        FAIR      82  69  66 S12G17    29.98F
$$
ABBREVIATIONS USED IN REMARKS
   TC - TEMPERATURES IN CELSIUS
  WCI - WIND CHILL INDEX
   HX - HEAT INDEX
  VSB - VISIBILITY
$$



USA.gov is the U.S. government's official web portal to all federal, state and local government web resources and services.